KANOPUS-V 3 1 43180U 18014A 21019.04123471 .00002660 00000-0 12916-3 0 9991 2 43180 97.4396 289.9677 0001619 86.3014 38.8732 15.19326591164399 KANOPUS-V 4 1 43181U 18014B 21019.07854325 .00000282 00000-0 16564-4 0 9996 2 43181 97.4363 290.1658 0001744 72.0735 41.3412 15.19304036164415 LEMUR-2-JIN-LUEN 1 43182U 18014C 21018.70634822 .00000324 00000-0 33248-4 0 9999 2 43182 97.6785 287.3863 0012524 223.5516 136.4718 14.96896329161855 LEMUR-2-URAMCHANSOL 1 43183U 18014D 21018.73576976 .00000533 00000-0 51340-4 0 9993 2 43183 97.6778 287.5140 0012945 224.3852 135.6333 14.96968482161862 LEMUR-2-KADI 1 43184U 18014E 21018.72797831 .00000174 00000-0 20221-4 0 9993 2 43184 97.6779 287.5297 0012771 225.5896 134.4281 14.96924132161868 LEMUR-2-THENICKMOLO 1 43185U 18014F 21018.98886176 .00000108 00000-0 14398-4 0 9998 2 43185 97.6791 287.8483 0012469 225.3747 134.6459 14.96965435161905 S-NET D 1 43186U 18014G 21018.69823455 .00000764 00000-0 71512-4 0 9997 2 43186 97.6869 288.9037 0009772 216.5995 143.4560 14.96952370161892 S-NET B 1 43187U 18014H 21018.69810537 .00000764 00000-0 71476-4 0 9994 2 43187 97.6867 288.8753 0009779 216.4691 143.5865 14.96951956161892 S-NET A 1 43188U 18014J 21018.69803148 .00000765 00000-0 71584-4 0 9996 2 43188 97.6870 288.9135 0009780 216.5487 143.5068 14.96950513161891 S-NET C 1 43189U 18014K 21018.69852249 .00000748 00000-0 70103-4 0 9990 2 43189 97.6866 288.8695 0009767 216.4528 143.6030 14.96950998160444